EW8063 Weather Reports


time (UTC)temp
C
wind
direction
speed
KPH
gust
KPH
rain 1hr
cm
rain 24hr
cm
rain mn
cm
humidity
%
barometer
mb
20260503033027 25 142 3.2 8.0 0.00 0.00 0.00 89 1017.5
20260503031527 25 160 3.2 9.7 0.00 0.00 0.00 88 1017.5
20260503030023 25 152 3.2 9.7 0.00 0.00 0.00 87 1017.7
20260503024523 25 141 1.6 6.4 0.00 0.00 0.00 87 1017.7
20260503023022 25 195 3.2 6.4 0.00 0.00 0.00 87 1017.7
20260503021522 25 178 3.2 8.0 0.00 0.00 0.00 86 1017.5
20260503020020 25 153 0.0 3.2 0.00 0.00 0.00 86 1017.5
20260503014519 26 139 0.0 3.2 0.00 0.00 0.00 85 1017.6
20260503013016 26 186 3.2 8.0 0.00 0.00 0.00 85 1017.4
20260503011515 26 190 3.2 8.0 0.00 0.00 0.00 85 1017.2
20260503010114 26 177 3.2 8.0 0.00 0.00 0.00 85 1017.2
20260503004543 26 180 4.8 8.0 0.00 0.00 0.00 84 1016.9
20260503003012 26 184 3.2 6.4 0.00 0.00 0.00 84 1016.8
20260503001514 26 200 3.2 6.4 0.00 0.00 0.00 83 1016.6
20260503000014 27 205 1.6 6.4 0.00 0.00 0.00 82 1016.4
20260502234511 27 204 4.8 9.7 0.00 0.00 0.00 81 1016.4
20260502233015 27 209 4.8 9.7 0.00 0.00 0.00 80 1016.1
20260502231512 27 200 4.8 11.3 0.00 0.00 0.00 79 1015.8
20260502230004 27 207 4.8 11.3 0.00 0.00 0.00 78 1015.7
20260502224504 27 217 4.8 11.3 0.00 0.00 0.00 77 1015.6
20260502223004 28 216 6.4 14.5 0.00 0.00 0.00 77 1015.4
20260502221503 28 214 11.3 16.1 0.00 0.00 0.00 75 1015.3
20260502220033 28 215 8.0 19.3 0.00 0.00 0.00 75 1015.1
20260502214542 28 234 11.3 19.3 0.00 0.00 0.00 75 1014.9
20260502213002 29 223 12.9 19.3 0.00 0.00 0.00 72 1014.9
20260502211504 30 213 11.3 20.9 0.00 0.00 0.00 71 1014.9
20260502210059 30 198 11.3 24.1 0.00 0.00 0.00 72 1014.9
20260502204559 30 215 12.9 20.9 0.00 0.00 0.00 72 1014.9
20260502203108 30 232 9.7 19.3 0.00 0.00 0.00 71 1014.8
20260502201620 30 198 12.9 24.1 0.00 0.00 0.00 71 1014.8
20260502200055 30 211 12.9 24.1 0.00 0.00 0.00 72 1014.8
20260502194559 30 205 14.5 24.1 0.00 0.00 0.00 71 1014.9
20260502193054 30 196 14.5 24.1 0.00 0.00 0.00 71 1014.9
20260502191553 31 196 12.9 20.9 0.00 0.00 0.00 69 1015.0
20260502190050 31 202 14.5 24.1 0.00 0.00 0.00 70 1015.1
20260502184549 30 205 14.5 25.7 0.00 0.00 0.00 70 1015.3
20260502183053 30 202 14.5 24.1 0.00 0.00 0.00 71 1015.4
20260502181548 30 195 16.1 22.5 0.00 0.00 0.00 72 1015.6
20260502163015 28 155 8.0 19.3 0.00 0.00 0.00 78 1016.2
20260502161507 29 146 8.0 19.3 0.00 0.00 0.00 77 1016.3
20260502151535 29 146 9.7 19.3 0.00 0.00 0.00 76 1016.6
20260502123014 26 172 8.0 19.3 0.00 0.00 0.00 84 1016.6
20260502121507 26 150 9.7 17.7 0.00 0.00 0.00 84 1016.6
20260502114636 25 166 8.0 19.3 0.00 0.00 0.00 87 1016.3
20260502113058 25 153 8.0 16.1 0.00 0.00 0.00 89 1016.2
20260502111554 25 148 8.0 17.7 0.00 0.00 0.00 89 1016.0
20260502110051 25 142 8.0 17.7 0.00 0.00 0.00 90 1015.8
20260502104547 25 131 8.0 17.7 0.00 0.00 0.00 90 1015.8
20260502103044 25 136 6.4 16.1 0.00 0.00 0.00 90 1015.8
20260502101559 25 158 9.7 17.7 0.00 0.00 0.00 89 1015.6
20260502091534 24 155 8.0 16.1 0.00 0.00 0.00 89 1015.1
20260502070046 25 163 8.0 17.7 0.00 0.00 0.00 89 1015.2
20260502064607 25 155 9.7 19.3 0.00 0.00 0.00 89 1015.3
20260502063047 25 165 6.4 16.1 0.00 0.00 0.00 89 1015.4
20260502061536 25 168 6.4 19.3 0.00 0.00 0.00 89 1015.3
20260502060044 25 144 8.0 16.1 0.00 0.00 0.00 89 1015.5
20260502054534 25 165 8.0 17.7 0.00 0.00 0.00 88 1015.8
20260502053034 25 145 6.4 14.5 0.00 0.00 0.00 88 1015.9
20260502051505 25 154 4.8 14.5 0.00 0.00 0.00 88 1016.0
20260502050004 25 168 6.4 19.3 0.00 0.00 0.00 88 1016.1
20260502044500 25 186 6.4 16.1 0.00 0.00 0.00 88 1016.2
20260502043001 25 132 6.4 14.5 0.00 0.00 0.00 88 1016.2
20260502041605 25 163 6.4 14.5 0.00 0.00 0.00 88 1016.4
20260502040100 25 138 4.8 16.1 0.00 0.00 0.00 88 1016.4
20260502034559 25 167 6.4 16.1 0.00 0.00 0.00 88 1016.3